Time,TemperatureF,DewpointF,PressureIn,WindDirection,WindDirectionDegrees,WindSpeedMPH,WindSpeedGustMPH,Humidity,HourlyPrecipIn,Conditions,Clouds,dailyrainin,SoftwareType,DateUTC
2013-01-21 00:00:00,35.0,19.6,30.17,WSW,242,0.0,0.0,53,0.00,,,0.00,Wunderground v.1.15,2013-01-21 08:00:00,
2013-01-21 00:10:00,34.7,20.6,30.17,WSW,242,0.0,0.0,56,0.00,,,0.00,Wunderground v.1.15,2013-01-21 08:10:00,
2013-01-21 00:15:00,34.6,19.6,30.17,WSW,242,0.0,0.0,54,0.00,,,0.00,Wunderground v.1.15,2013-01-21 08:15:00,
2013-01-21 00:20:00,34.4,19.5,30.16,WSW,242,0.0,0.0,54,0.00,,,0.00,Wunderground v.1.15,2013-01-21 08:20:00,
2013-01-21 00:25:00,34.3,19.4,30.16,WSW,242,0.0,0.0,54,0.00,,,0.00,Wunderground v.1.15,2013-01-21 08:25:00,
2013-01-21 00:30:00,34.2,19.7,30.16,WSW,242,0.0,0.0,55,0.00,,,0.00,Wunderground v.1.15,2013-01-21 08:30:00,
2013-01-21 00:35:00,34.1,20.0,30.16,WSW,242,0.0,0.0,56,0.00,,,0.00,Wunderground v.1.15,2013-01-21 08:35:00,
2013-01-21 00:40:00,33.9,19.8,30.16,WSW,242,0.0,0.0,56,0.00,,,0.00,Wunderground v.1.15,2013-01-21 08:40:00,
2013-01-21 00:45:00,33.7,20.1,30.16,WSW,242,0.0,0.0,57,0.00,,,0.00,Wunderground v.1.15,2013-01-21 08:45:00,
2013-01-21 00:55:00,33.4,19.8,30.16,WSW,242,0.0,1.0,57,0.00,,,0.00,Wunderground v.1.15,2013-01-21 08:55:00,
2013-01-21 01:00:00,33.2,20.0,30.16,WSW,242,0.0,0.0,58,0.00,,,0.00,Wunderground v.1.15,2013-01-21 09:00:00,
2013-01-21 01:10:00,33.1,19.9,30.16,WSW,242,0.0,0.0,58,0.00,,,0.00,Wunderground v.1.15,2013-01-21 09:10:00,
2013-01-21 01:15:00,33.0,19.0,30.16,WSW,242,0.0,0.0,56,0.00,,,0.00,Wunderground v.1.15,2013-01-21 09:15:00,
2013-01-21 01:20:00,33.2,20.0,30.16,WSW,242,0.0,0.0,58,0.00,,,0.00,Wunderground v.1.15,2013-01-21 09:20:00,
2013-01-21 01:25:00,33.0,19.0,30.16,WSW,242,0.0,0.0,56,0.00,,,0.00,Wunderground v.1.15,2013-01-21 09:25:00,
2013-01-21 01:30:00,32.7,19.5,30.16,WSW,242,0.0,0.0,58,0.00,,,0.00,Wunderground v.1.15,2013-01-21 09:30:00,
2013-01-21 01:35:00,32.5,19.3,30.15,WSW,242,0.0,0.0,58,0.00,,,0.00,Wunderground v.1.15,2013-01-21 09:35:00,
2013-01-21 01:40:00,32.4,19.7,30.15,WSW,242,0.0,0.0,59,0.00,,,0.00,Wunderground v.1.15,2013-01-21 09:40:00,
2013-01-21 01:45:00,32.3,20.0,30.15,WSW,242,0.0,0.0,60,0.00,,,0.00,Wunderground v.1.15,2013-01-21 09:45:00,
2013-01-21 01:50:00,32.1,19.0,30.15,WSW,242,0.0,0.0,58,0.00,,,0.00,Wunderground v.1.15,2013-01-21 09:50:00,
2013-01-21 01:55:00,32.0,18.9,30.15,WSW,242,0.0,0.0,58,0.00,,,0.00,Wunderground v.1.15,2013-01-21 09:55:00,
2013-01-21 02:00:00,32.0,20.1,30.15,WSW,242,0.0,0.0,61,0.00,,,0.00,Wunderground v.1.15,2013-01-21 10:00:00,
2013-01-21 02:05:00,32.0,20.1,30.15,WSW,242,0.0,0.0,61,0.00,,,0.00,Wunderground v.1.15,2013-01-21 10:05:00,
2013-01-21 02:10:00,31.7,19.4,30.15,WSW,242,0.0,0.0,60,0.00,,,0.00,Wunderground v.1.15,2013-01-21 10:10:00,
2013-01-21 02:15:00,31.5,20.0,30.15,WSW,242,0.0,0.0,62,0.00,,,0.00,Wunderground v.1.15,2013-01-21 10:15:00,
2013-01-21 02:20:00,31.5,20.0,30.15,WSW,242,0.0,0.0,62,0.00,,,0.00,Wunderground v.1.15,2013-01-21 10:20:00,
2013-01-21 02:25:00,31.5,19.6,30.15,WSW,242,0.0,0.0,61,0.00,,,0.00,Wunderground v.1.15,2013-01-21 10:25:00,
2013-01-21 02:30:00,31.3,19.4,30.14,WSW,242,0.0,1.0,61,0.00,,,0.00,Wunderground v.1.15,2013-01-21 10:30:00,
2013-01-21 02:35:00,31.1,19.6,30.14,WSW,242,0.0,1.0,62,0.00,,,0.00,Wunderground v.1.15,2013-01-21 10:35:00,
2013-01-21 02:40:00,30.9,19.8,30.14,WSW,242,0.0,0.0,63,0.00,,,0.00,Wunderground v.1.15,2013-01-21 10:40:00,
2013-01-21 02:45:00,30.8,20.0,30.14,WSW,242,0.0,0.0,64,0.00,,,0.00,Wunderground v.1.15,2013-01-21 10:45:00,
2013-01-21 02:50:00,31.0,19.5,30.14,WSW,242,0.0,0.0,62,0.00,,,0.00,Wunderground v.1.15,2013-01-21 10:50:00,
2013-01-21 02:55:00,31.0,19.5,30.14,WSW,242,0.0,0.0,62,0.00,,,0.00,Wunderground v.1.15,2013-01-21 10:55:00,
2013-01-21 03:00:00,31.0,19.5,30.14,WSW,242,0.0,1.0,62,0.00,,,0.00,Wunderground v.1.15,2013-01-21 11:00:00,
2013-01-21 03:05:00,31.0,19.5,30.14,WSW,242,0.0,1.0,62,0.00,,,0.00,Wunderground v.1.15,2013-01-21 11:05:00,
2013-01-21 03:10:00,31.0,19.5,30.14,WSW,242,0.0,0.0,62,0.00,,,0.00,Wunderground v.1.15,2013-01-21 11:10:00,
2013-01-21 03:15:00,30.9,19.8,30.14,WSW,242,0.0,0.0,63,0.00,,,0.00,Wunderground v.1.15,2013-01-21 11:15:00,
2013-01-21 03:20:00,30.8,19.3,30.14,WSW,242,0.0,0.0,62,0.00,,,0.00,Wunderground v.1.15,2013-01-21 11:20:00,
2013-01-21 03:25:00,30.8,19.7,30.14,WSW,242,0.0,0.0,63,0.00,,,0.00,Wunderground v.1.15,2013-01-21 11:25:00,
2013-01-21 03:30:00,30.9,19.8,30.13,WSW,242,0.0,0.0,63,0.00,,,0.00,Wunderground v.1.15,2013-01-21 11:30:00,
2013-01-21 03:35:00,30.9,19.4,30.13,WSW,242,0.0,0.0,62,0.00,,,0.00,Wunderground v.1.15,2013-01-21 11:35:00,
2013-01-21 03:40:00,30.8,19.7,30.13,WSW,242,0.0,0.0,63,0.00,,,0.00,Wunderground v.1.15,2013-01-21 11:40:00,
2013-01-21 03:45:00,30.7,20.0,30.13,WSW,242,0.0,0.0,64,0.00,,,0.00,Wunderground v.1.15,2013-01-21 11:45:00,
2013-01-21 03:50:00,30.5,19.8,30.13,WSW,242,0.0,0.0,64,0.00,,,0.00,Wunderground v.1.15,2013-01-21 11:50:00,
2013-01-21 03:55:00,30.3,19.6,30.13,WSW,242,0.0,0.0,64,0.00,,,0.00,Wunderground v.1.15,2013-01-21 11:55:00,
2013-01-21 04:00:00,30.1,20.1,30.13,WSW,242,0.0,0.0,66,0.00,,,0.00,Wunderground v.1.15,2013-01-21 12:00:00,
2013-01-21 04:05:00,30.1,19.7,30.12,WSW,242,0.0,0.0,65,0.00,,,0.00,Wunderground v.1.15,2013-01-21 12:05:00,
2013-01-21 04:10:00,30.3,20.3,30.12,WSW,242,0.0,0.0,66,0.00,,,0.00,Wunderground v.1.15,2013-01-21 12:10:00,
2013-01-21 04:15:00,30.2,19.8,30.12,WSW,242,0.0,0.0,65,0.00,,,0.00,Wunderground v.1.15,2013-01-21 12:15:00,
2013-01-21 04:20:00,30.1,20.1,30.13,WSW,242,0.0,0.0,66,0.00,,,0.00,Wunderground v.1.15,2013-01-21 12:20:00,
2013-01-21 04:25:00,30.2,19.8,30.13,WSW,242,0.0,0.0,65,0.00,,,0.00,Wunderground v.1.15,2013-01-21 12:25:00,
2013-01-21 04:30:00,30.2,19.8,30.13,WSW,242,0.0,0.0,65,0.00,,,0.00,Wunderground v.1.15,2013-01-21 12:30:00,
2013-01-21 04:35:00,30.2,19.8,30.13,WSW,242,0.0,0.0,65,0.00,,,0.00,Wunderground v.1.15,2013-01-21 12:35:00,
2013-01-21 04:40:00,30.2,19.8,30.13,WSW,242,0.0,0.0,65,0.00,,,0.00,Wunderground v.1.15,2013-01-21 12:40:00,
2013-01-21 04:45:00,30.2,19.8,30.13,WSW,242,0.0,0.0,65,0.00,,,0.00,Wunderground v.1.15,2013-01-21 12:45:00,
2013-01-21 04:55:00,30.1,20.1,30.13,WSW,242,0.0,0.0,66,0.00,,,0.00,Wunderground v.1.15,2013-01-21 12:55:00,
2013-01-21 05:00:00,30.1,20.1,30.13,WSW,242,0.0,0.0,66,0.00,,,0.00,Wunderground v.1.15,2013-01-21 13:00:00,
2013-01-21 05:05:00,30.1,20.1,30.13,WSW,242,0.0,0.0,66,0.00,,,0.00,Wunderground v.1.15,2013-01-21 13:05:00,
2013-01-21 05:10:00,29.9,19.9,30.13,WSW,242,0.0,0.0,66,0.00,,,0.00,Wunderground v.1.15,2013-01-21 13:10:00,
2013-01-21 05:15:00,29.9,20.3,30.13,WSW,242,0.0,0.0,67,0.00,,,0.00,Wunderground v.1.15,2013-01-21 13:15:00,
2013-01-21 05:20:00,30.2,20.2,30.13,WSW,242,0.0,0.0,66,0.00,,,0.00,Wunderground v.1.15,2013-01-21 13:20:00,
2013-01-21 05:25:00,30.1,20.1,30.13,WSW,242,0.0,0.0,66,0.00,,,0.00,Wunderground v.1.15,2013-01-21 13:25:00,
2013-01-21 05:30:00,30.1,20.1,30.13,WSW,242,0.0,0.0,66,0.00,,,0.00,Wunderground v.1.15,2013-01-21 13:30:00,
2013-01-21 05:40:00,30.1,20.5,30.13,WSW,242,0.0,0.0,67,0.00,,,0.00,Wunderground v.1.15,2013-01-21 13:40:00,
2013-01-21 05:45:00,30.0,20.4,30.13,WSW,242,0.0,0.0,67,0.00,,,0.00,Wunderground v.1.15,2013-01-21 13:45:00,
2013-01-21 05:50:00,29.9,20.3,30.14,WSW,242,0.0,0.0,67,0.00,,,0.00,Wunderground v.1.15,2013-01-21 13:50:00,
2013-01-21 05:55:00,29.7,20.4,30.13,WSW,242,0.0,0.0,68,0.00,,,0.00,Wunderground v.1.15,2013-01-21 13:55:00,
2013-01-21 06:00:00,29.8,20.5,30.13,WSW,242,0.0,0.0,68,0.00,,,0.00,Wunderground v.1.15,2013-01-21 14:00:00,
2013-01-21 06:05:00,29.8,20.5,30.13,WSW,242,0.0,0.0,68,0.00,,,0.00,Wunderground v.1.15,2013-01-21 14:05:00,
2013-01-21 06:10:00,29.9,20.3,30.13,WSW,242,0.0,2.0,67,0.00,,,0.00,Wunderground v.1.15,2013-01-21 14:10:00,
2013-01-21 06:15:00,29.9,20.6,30.13,WSW,242,0.0,2.0,68,0.00,,,0.00,Wunderground v.1.15,2013-01-21 14:15:00,
2013-01-21 06:20:00,30.2,20.6,30.14,WSW,242,0.0,0.0,67,0.00,,,0.00,Wunderground v.1.15,2013-01-21 14:20:00,
2013-01-21 06:25:00,30.4,20.7,30.13,WSW,242,0.0,0.0,67,0.00,,,0.00,Wunderground v.1.15,2013-01-21 14:25:00,
2013-01-21 06:30:00,30.4,20.7,30.13,WSW,242,0.0,0.0,67,0.00,,,0.00,Wunderground v.1.15,2013-01-21 14:30:00,
2013-01-21 06:35:00,30.2,20.6,30.13,WSW,242,0.0,0.0,67,0.00,,,0.00,Wunderground v.1.15,2013-01-21 14:35:00,
2013-01-21 06:40:00,30.2,20.2,30.13,WSW,242,0.0,1.0,66,0.00,,,0.00,Wunderground v.1.15,2013-01-21 14:40:00,
2013-01-21 06:45:00,30.3,20.6,30.13,WSW,242,0.0,1.0,67,0.00,,,0.00,Wunderground v.1.15,2013-01-21 14:45:00,
2013-01-21 06:50:00,30.1,20.5,30.14,WSW,242,0.0,0.0,67,0.00,,,0.00,Wunderground v.1.15,2013-01-21 14:50:00,
2013-01-21 06:55:00,29.8,20.5,30.14,WSW,242,0.0,0.0,68,0.00,,,0.00,Wunderground v.1.15,2013-01-21 14:55:00,
2013-01-21 07:00:00,29.7,20.4,30.14,WSW,242,0.0,0.0,68,0.00,,,0.00,Wunderground v.1.15,2013-01-21 15:00:00,
2013-01-21 07:05:00,29.7,20.4,30.14,WSW,242,0.0,0.0,68,0.00,,,0.00,Wunderground v.1.15,2013-01-21 15:05:00,
2013-01-21 07:10:00,29.7,20.8,30.14,WSW,242,0.0,0.0,69,0.00,,,0.00,Wunderground v.1.15,2013-01-21 15:10:00,
2013-01-21 07:15:00,29.8,20.5,30.14,WSW,242,0.0,0.0,68,0.00,,,0.00,Wunderground v.1.15,2013-01-21 15:15:00,
2013-01-21 07:20:00,30.0,21.1,30.14,WSW,242,0.0,0.0,69,0.00,,,0.00,Wunderground v.1.15,2013-01-21 15:20:00,
2013-01-21 07:25:00,30.1,20.8,30.14,WSW,242,0.0,0.0,68,0.00,,,0.00,Wunderground v.1.15,2013-01-21 15:25:00,
2013-01-21 07:30:00,30.1,21.2,30.14,WSW,242,0.0,0.0,69,0.00,,,0.00,Wunderground v.1.15,2013-01-21 15:30:00,
2013-01-21 07:35:00,30.3,21.0,30.14,WSW,242,0.0,0.0,68,0.00,,,0.00,Wunderground v.1.15,2013-01-21 15:35:00,
2013-01-21 07:40:00,30.4,21.4,30.14,WSW,242,0.0,0.0,69,0.00,,,0.00,Wunderground v.1.15,2013-01-21 15:40:00,
2013-01-21 07:45:00,30.7,21.4,30.14,WSW,242,0.0,0.0,68,0.00,,,0.00,Wunderground v.1.15,2013-01-21 15:45:00,
2013-01-21 07:50:00,31.0,21.3,30.14,WSW,242,0.0,0.0,67,0.00,,,0.00,Wunderground v.1.15,2013-01-21 15:50:00,
2013-01-21 07:55:00,31.1,21.4,30.14,WSW,242,1.0,1.0,67,0.00,,,0.00,Wunderground v.1.15,2013-01-21 15:55:00,
2013-01-21 08:00:00,31.3,22.0,30.15,WSW,242,0.0,0.0,68,0.00,,,0.00,Wunderground v.1.15,2013-01-21 16:00:00,
2013-01-21 08:05:00,31.6,21.9,30.15,WSW,242,0.0,0.0,67,0.00,,,0.00,Wunderground v.1.15,2013-01-21 16:05:00,
2013-01-21 08:10:00,31.9,22.2,30.15,WSW,242,0.0,0.0,67,0.00,,,0.00,Wunderground v.1.15,2013-01-21 16:10:00,
2013-01-21 08:15:00,32.3,22.9,30.15,WSW,242,0.0,0.0,68,0.00,,,0.00,Wunderground v.1.15,2013-01-21 16:15:00,
2013-01-21 08:20:00,33.2,23.1,30.15,WSW,242,0.0,0.0,66,0.00,,,0.00,Wunderground v.1.15,2013-01-21 16:20:00,
2013-01-21 08:25:00,34.4,23.5,30.15,WSW,242,0.0,0.0,64,0.00,,,0.00,Wunderground v.1.15,2013-01-21 16:25:00,
2013-01-21 08:30:00,35.9,23.7,30.16,WSW,242,0.0,0.0,61,0.00,,,0.00,Wunderground v.1.15,2013-01-21 16:30:00,
2013-01-21 08:35:00,37.0,24.4,30.16,WSW,242,0.0,0.0,60,0.00,,,0.00,Wunderground v.1.15,2013-01-21 16:35:00,
2013-01-21 08:40:00,38.0,24.5,30.16,WSW,242,0.0,0.0,58,0.00,,,0.00,Wunderground v.1.15,2013-01-21 16:40:00,
2013-01-21 08:45:00,39.5,24.2,30.16,WSW,242,0.0,0.0,54,0.00,,,0.00,Wunderground v.1.15,2013-01-21 16:45:00,
2013-01-21 08:50:00,40.9,25.1,30.16,WSW,242,0.0,0.0,53,0.00,,,0.00,Wunderground v.1.15,2013-01-21 16:50:00,
2013-01-21 08:55:00,41.7,25.4,30.17,WSW,242,0.0,0.0,52,0.00,,,0.00,Wunderground v.1.15,2013-01-21 16:55:00,
2013-01-21 09:00:00,42.8,24.9,30.17,WSW,242,0.0,0.0,49,0.00,,,0.00,Wunderground v.1.15,2013-01-21 17:00:00,
2013-01-21 09:05:00,44.3,25.3,30.17,WSW,242,0.0,0.0,47,0.00,,,0.00,Wunderground v.1.15,2013-01-21 17:05:00,
2013-01-21 09:10:00,45.9,25.7,30.17,WSW,242,0.0,0.0,45,0.00,,,0.00,Wunderground v.1.15,2013-01-21 17:10:00,
2013-01-21 09:15:00,47.5,26.1,30.17,WSW,242,0.0,0.0,43,0.00,,,0.00,Wunderground v.1.15,2013-01-21 17:15:00,
2013-01-21 09:20:00,48.8,26.7,30.17,WSW,242,0.0,0.0,42,0.00,,,0.00,Wunderground v.1.15,2013-01-21 17:20:00,
2013-01-21 09:25:00,50.2,27.4,30.17,WSW,242,0.0,0.0,41,0.00,,,0.00,Wunderground v.1.15,2013-01-21 17:25:00,
2013-01-21 09:30:00,51.8,25.7,30.17,WSW,242,0.0,0.0,36,0.00,,,0.00,Wunderground v.1.15,2013-01-21 17:30:00,
2013-01-21 09:40:00,54.8,25.5,30.17,WSW,242,0.0,0.0,32,0.00,,,0.00,Wunderground v.1.15,2013-01-21 17:40:00,
2013-01-21 09:45:00,56.6,24.7,30.17,WSW,242,0.0,0.0,29,0.00,,,0.00,Wunderground v.1.15,2013-01-21 17:45:00,
2013-01-21 09:50:00,58.1,26.0,30.17,WSW,242,0.0,0.0,29,0.00,,,0.00,Wunderground v.1.15,2013-01-21 17:50:00,
2013-01-21 09:55:00,59.3,28.6,30.18,WSW,242,0.0,0.0,31,0.00,,,0.00,Wunderground v.1.15,2013-01-21 17:55:00,
2013-01-21 10:00:00,60.3,28.7,30.18,WSW,242,0.0,0.0,30,0.00,,,0.00,Wunderground v.1.15,2013-01-21 18:00:00,
2013-01-21 10:05:00,61.1,25.0,30.18,WSW,242,0.0,0.0,25,0.00,,,0.00,Wunderground v.1.15,2013-01-21 18:05:00,
2013-01-21 10:10:00,62.1,20.5,30.18,WSW,242,0.0,0.0,20,0.00,,,0.00,Wunderground v.1.15,2013-01-21 18:10:00,
2013-01-21 10:15:00,63.5,17.8,30.18,WSW,242,0.0,0.0,17,0.00,,,0.00,Wunderground v.1.15,2013-01-21 18:15:00,
2013-01-21 10:20:00,64.7,20.2,30.18,WSW,242,0.0,0.0,18,0.00,,,0.00,Wunderground v.1.15,2013-01-21 18:20:00,
2013-01-21 10:25:00,66.0,19.9,30.17,WSW,242,0.0,0.0,17,0.00,,,0.00,Wunderground v.1.15,2013-01-21 18:25:00,
2013-01-21 10:30:00,66.8,19.1,30.18,WSW,242,0.0,0.0,16,0.00,,,0.00,Wunderground v.1.15,2013-01-21 18:30:00,
2013-01-21 10:35:00,67.3,19.5,30.18,WSW,242,0.0,0.0,16,0.00,,,0.00,Wunderground v.1.15,2013-01-21 18:35:00,
2013-01-21 10:40:00,67.9,16.9,30.18,WSW,242,0.0,0.0,14,0.00,,,0.00,Wunderground v.1.15,2013-01-21 18:40:00,
2013-01-21 10:45:00,68.4,17.3,30.18,WSW,242,0.0,0.0,14,0.00,,,0.00,Wunderground v.1.15,2013-01-21 18:45:00,
2013-01-21 10:55:00,69.9,16.8,30.17,WSW,242,0.0,1.0,13,0.00,,,0.00,Wunderground v.1.15,2013-01-21 18:55:00,
2013-01-21 11:00:00,70.7,17.4,30.18,WSW,242,0.0,1.0,13,0.00,,,0.00,Wunderground v.1.15,2013-01-21 19:00:00,
2013-01-21 11:10:00,71.5,18.0,30.18,WSW,242,0.0,0.0,13,0.00,,,0.00,Wunderground v.1.15,2013-01-21 19:10:00,
2013-01-21 11:15:00,72.1,14.6,30.17,WSW,242,0.0,0.0,11,0.00,,,0.00,Wunderground v.1.15,2013-01-21 19:15:00,
2013-01-21 11:20:00,72.6,12.8,30.17,South,181,0.0,0.0,10,0.00,,,0.00,Wunderground v.1.15,2013-01-21 19:20:00,
2013-01-21 11:25:00,73.2,13.3,30.16,South,181,0.0,1.0,10,0.00,,,0.00,Wunderground v.1.15,2013-01-21 19:25:00,
2013-01-21 11:30:00,73.6,13.6,30.16,South,181,1.0,1.0,10,0.00,,,0.00,Wunderground v.1.15,2013-01-21 19:30:00,
2013-01-21 11:35:00,73.7,15.9,30.16,SSW,194,0.0,2.0,11,0.00,,,0.00,Wunderground v.1.15,2013-01-21 19:35:00,
2013-01-21 11:45:00,73.9,16.0,30.15,SSW,194,1.0,1.0,11,0.00,,,0.00,Wunderground v.1.15,2013-01-21 19:45:00,
2013-01-21 11:50:00,74.2,11.7,30.15,SW,234,1.0,4.0,9,0.00,,,0.00,Wunderground v.1.15,2013-01-21 19:50:00,
2013-01-21 11:55:00,74.5,9.3,30.15,West,263,1.0,4.0,8,0.00,,,0.00,Wunderground v.1.15,2013-01-21 19:55:00,
2013-01-21 12:00:00,74.8,9.5,30.14,NW,323,1.0,1.0,8,0.00,,,0.00,Wunderground v.1.15,2013-01-21 20:00:00,
2013-01-21 12:05:00,75.1,6.7,30.14,WSW,249,1.0,1.0,7,0.00,,,0.00,Wunderground v.1.15,2013-01-21 20:05:00,
2013-01-21 12:10:00,75.3,6.9,30.14,NW,311,1.0,1.0,7,0.00,,,0.00,Wunderground v.1.15,2013-01-21 20:10:00,
2013-01-21 12:15:00,75.6,10.1,30.14,SSW,192,1.0,2.0,8,0.00,,,0.00,Wunderground v.1.15,2013-01-21 20:15:00,
2013-01-21 12:25:00,76.0,10.4,30.13,ESE,123,1.0,1.0,8,0.00,,,0.00,Wunderground v.1.15,2013-01-21 20:25:00,
2013-01-21 12:30:00,76.1,10.4,30.13,North,355,1.0,1.0,8,0.00,,,0.00,Wunderground v.1.15,2013-01-21 20:30:00,
2013-01-21 12:35:00,76.2,7.5,30.13,WNW,302,2.0,2.0,7,0.00,,,0.00,Wunderground v.1.15,2013-01-21 20:35:00,
2013-01-21 12:40:00,76.7,7.9,30.12,NNW,341,2.0,2.0,7,0.00,,,0.00,Wunderground v.1.15,2013-01-21 20:40:00,
2013-01-21 12:45:00,76.6,10.8,30.12,NW,306,1.0,3.0,8,0.00,,,0.00,Wunderground v.1.15,2013-01-21 20:45:00,
2013-01-21 12:50:00,76.8,11.0,30.12,NE,44,1.0,1.0,8,0.00,,,0.00,Wunderground v.1.15,2013-01-21 20:50:00,
2013-01-21 12:55:00,77.0,8.1,30.12,WNW,296,2.0,3.0,7,0.00,,,0.00,Wunderground v.1.15,2013-01-21 20:55:00,
2013-01-21 13:00:00,76.9,8.1,30.11,NNE,19,2.0,2.0,7,0.00,,,0.00,Wunderground v.1.15,2013-01-21 21:00:00,
2013-01-21 13:05:00,76.9,8.1,30.11,NNE,23,1.0,2.0,7,0.00,,,0.00,Wunderground v.1.15,2013-01-21 21:05:00,
2013-01-21 13:10:00,77.1,8.2,30.11,NNE,26,1.0,1.0,7,0.00,,,0.00,Wunderground v.1.15,2013-01-21 21:10:00,
2013-01-21 13:15:00,77.1,13.9,30.11,NNE,26,1.0,1.0,9,0.00,,,0.00,Wunderground v.1.15,2013-01-21 21:15:00,
2013-01-21 13:20:00,77.0,11.1,30.10,WNW,302,1.0,1.0,8,0.00,,,0.00,Wunderground v.1.15,2013-01-21 21:20:00,
2013-01-21 13:25:00,76.8,8.0,30.10,NNW,328,2.0,2.0,7,0.00,,,0.00,Wunderground v.1.15,2013-01-21 21:25:00,
2013-01-21 13:30:00,76.9,4.7,30.10,NW,319,2.0,2.0,6,0.00,,,0.00,Wunderground v.1.15,2013-01-21 21:30:00,
2013-01-21 13:40:00,76.8,8.0,30.10,ENE,59,2.0,2.0,7,0.00,,,0.00,Wunderground v.1.15,2013-01-21 21:40:00,
2013-01-21 13:45:00,76.6,7.8,30.10,ENE,60,2.0,2.0,7,0.00,,,0.00,Wunderground v.1.15,2013-01-21 21:45:00,
2013-01-21 13:50:00,76.6,4.5,30.10,NNW,344,2.0,3.0,6,0.00,,,0.00,Wunderground v.1.15,2013-01-21 21:50:00,
2013-01-21 13:55:00,76.7,7.9,30.10,NW,322,2.0,4.0,7,0.00,,,0.00,Wunderground v.1.15,2013-01-21 21:55:00,
2013-01-21 14:00:00,76.8,4.6,30.10,ENE,64,2.0,2.0,6,0.00,,,0.00,Wunderground v.1.15,2013-01-21 22:00:00,
2013-01-21 14:05:00,76.5,7.8,30.10,NNE,19,2.0,2.0,7,0.00,,,0.00,Wunderground v.1.15,2013-01-21 22:05:00,
2013-01-21 14:10:00,76.4,4.3,30.10,WNW,290,2.0,2.0,6,0.00,,,0.00,Wunderground v.1.15,2013-01-21 22:10:00,
2013-01-21 14:15:00,76.4,7.7,30.10,ENE,74,2.0,2.0,7,0.00,,,0.00,Wunderground v.1.15,2013-01-21 22:15:00,
2013-01-21 14:20:00,76.5,4.4,30.10,East,84,2.0,2.0,6,0.00,,,0.00,Wunderground v.1.15,2013-01-21 22:20:00,
2013-01-21 14:25:00,76.4,4.3,30.10,WSW,255,2.0,2.0,6,0.00,,,0.00,Wunderground v.1.15,2013-01-21 22:25:00,
2013-01-21 14:30:00,76.4,7.7,30.10,NW,319,1.0,1.0,7,0.00,,,0.00,Wunderground v.1.15,2013-01-21 22:30:00,
2013-01-21 14:40:00,76.1,10.4,30.11,NNW,341,1.0,2.0,8,0.00,,,0.00,Wunderground v.1.15,2013-01-21 22:40:00,
2013-01-21 14:45:00,76.0,7.4,30.11,NNW,337,1.0,2.0,7,0.00,,,0.00,Wunderground v.1.15,2013-01-21 22:45:00,
2013-01-21 14:55:00,76.1,7.5,30.10,NW,319,1.0,2.0,7,0.00,,,0.00,Wunderground v.1.15,2013-01-21 22:55:00,
2013-01-21 15:00:00,76.0,7.4,30.10,East,100,1.0,4.0,7,0.00,,,0.00,Wunderground v.1.15,2013-01-21 23:00:00,
2013-01-21 15:05:00,75.9,10.3,30.10,WNW,296,1.0,4.0,8,0.00,,,0.00,Wunderground v.1.15,2013-01-21 23:05:00,
2013-01-21 15:10:00,75.8,7.3,30.10,NW,317,1.0,1.0,7,0.00,,,0.00,Wunderground v.1.15,2013-01-21 23:10:00,
2013-01-21 15:15:00,75.6,7.1,30.10,East,84,1.0,1.0,7,0.00,,,0.00,Wunderground v.1.15,2013-01-21 23:15:00,
2013-01-21 15:20:00,75.4,7.0,30.10,East,87,1.0,4.0,7,0.00,,,0.00,Wunderground v.1.15,2013-01-21 23:20:00,
2013-01-21 15:25:00,75.3,6.9,30.11,North,5,1.0,4.0,7,0.00,,,0.00,Wunderground v.1.15,2013-01-21 23:25:00,
2013-01-21 15:30:00,75.5,7.0,30.10,WNW,298,2.0,2.0,7,0.00,,,0.00,Wunderground v.1.15,2013-01-21 23:30:00,
2013-01-21 15:40:00,75.3,6.9,30.10,NW,317,2.0,2.0,7,0.00,,,0.00,Wunderground v.1.15,2013-01-21 23:40:00,
2013-01-21 15:45:00,75.2,6.8,30.10,East,84,3.0,4.0,7,0.00,,,0.00,Wunderground v.1.15,2013-01-21 23:45:00,
2013-01-21 15:50:00,74.9,6.6,30.10,ENE,76,3.0,3.0,7,0.00,,,0.00,Wunderground v.1.15,2013-01-21 23:50:00,
2013-01-21 15:55:00,74.7,6.4,30.10,NE,54,2.0,3.0,7,0.00,,,0.00,Wunderground v.1.15,2013-01-21 23:55:00,
2013-01-21 16:00:00,74.6,9.3,30.09,North,355,1.0,1.0,8,0.00,,,0.00,Wunderground v.1.15,2013-01-22 00:00:00,
2013-01-21 16:05:00,74.3,9.1,30.09,NNE,32,1.0,2.0,8,0.00,,,0.00,Wunderground v.1.15,2013-01-22 00:05:00,
2013-01-21 16:10:00,73.9,8.8,30.09,East,99,1.0,1.0,8,0.00,,,0.00,Wunderground v.1.15,2013-01-22 00:10:00,
2013-01-21 16:15:00,73.5,11.1,30.09,NNE,29,1.0,1.0,9,0.00,,,0.00,Wunderground v.1.15,2013-01-22 00:15:00,
2013-01-21 16:20:00,73.0,10.8,30.09,NE,34,0.0,0.0,9,0.00,,,0.00,Wunderground v.1.15,2013-01-22 00:20:00,
2013-01-21 16:25:00,72.5,10.4,30.09,NE,34,1.0,1.0,9,0.00,,,0.00,Wunderground v.1.15,2013-01-22 00:25:00,
2013-01-21 16:30:00,72.2,10.2,30.09,NNE,23,1.0,1.0,9,0.00,,,0.00,Wunderground v.1.15,2013-01-22 00:30:00,
2013-01-21 16:35:00,71.9,12.3,30.09,NE,44,0.0,1.0,10,0.00,,,0.00,Wunderground v.1.15,2013-01-22 00:35:00,
2013-01-21 16:40:00,71.3,9.5,30.08,NE,44,0.0,0.0,9,0.00,,,0.00,Wunderground v.1.15,2013-01-22 00:40:00,
2013-01-21 16:45:00,70.7,13.5,30.08,NE,44,0.0,0.0,11,0.00,,,0.00,Wunderground v.1.15,2013-01-22 00:45:00,
2013-01-21 16:50:00,70.3,11.1,30.08,NE,44,0.0,0.0,10,0.00,,,0.00,Wunderground v.1.15,2013-01-22 00:50:00,
2013-01-21 16:55:00,69.9,8.4,30.08,SE,136,0.0,2.0,9,0.00,,,0.00,Wunderground v.1.15,2013-01-22 00:55:00,
2013-01-21 17:00:00,69.5,14.6,30.08,SE,136,0.0,0.0,12,0.00,,,0.00,Wunderground v.1.15,2013-01-22 01:00:00,
2013-01-21 17:10:00,67.9,15.2,30.08,SE,136,0.0,1.0,13,0.00,,,0.00,Wunderground v.1.15,2013-01-22 01:10:00,
2013-01-21 17:15:00,66.8,14.3,30.08,SE,136,0.0,1.0,13,0.00,,,0.00,Wunderground v.1.15,2013-01-22 01:15:00,
2013-01-21 17:20:00,65.6,16.6,30.09,SE,136,0.0,1.0,15,0.00,,,0.00,Wunderground v.1.15,2013-01-22 01:20:00,
2013-01-21 17:25:00,64.1,13.9,30.09,SE,136,0.0,1.0,14,0.00,,,0.00,Wunderground v.1.15,2013-01-22 01:25:00,
2013-01-21 17:30:00,62.9,16.0,30.09,SE,136,0.0,0.0,16,0.00,,,0.00,Wunderground v.1.15,2013-01-22 01:30:00,
2013-01-21 17:40:00,60.7,16.9,30.09,SW,226,0.0,0.0,18,0.00,,,0.00,Wunderground v.1.15,2013-01-22 01:40:00,
2013-01-21 17:45:00,59.9,16.2,30.09,SW,226,1.0,1.0,18,0.00,,,0.00,Wunderground v.1.15,2013-01-22 01:45:00,
2013-01-21 17:55:00,58.1,16.0,30.10,SW,226,0.0,2.0,19,0.00,,,0.00,Wunderground v.1.15,2013-01-22 01:55:00,
2013-01-21 18:00:00,57.3,16.5,30.10,SW,226,0.0,0.0,20,0.00,,,0.00,Wunderground v.1.15,2013-01-22 02:00:00,
2013-01-21 18:05:00,56.7,16.0,30.10,SW,226,0.0,0.0,20,0.00,,,0.00,Wunderground v.1.15,2013-01-22 02:05:00,
2013-01-21 18:10:00,56.4,15.8,30.10,SW,226,1.0,1.0,20,0.00,,,0.00,Wunderground v.1.15,2013-01-22 02:10:00,
2013-01-21 18:15:00,56.4,15.8,30.10,SW,226,1.0,1.0,20,0.00,,,0.00,Wunderground v.1.15,2013-01-22 02:15:00,
2013-01-21 18:20:00,56.3,14.5,30.10,SW,226,1.0,1.0,19,0.00,,,0.00,Wunderground v.1.15,2013-01-22 02:20:00,
2013-01-21 18:25:00,55.9,18.6,30.11,SW,226,0.0,1.0,23,0.00,,,0.00,Wunderground v.1.15,2013-01-22 02:25:00,
2013-01-21 18:30:00,55.0,17.8,30.11,SW,226,0.0,0.0,23,0.00,,,0.00,Wunderground v.1.15,2013-01-22 02:30:00,
2013-01-21 18:40:00,53.5,15.5,30.11,SW,226,0.0,0.0,22,0.00,,,0.00,Wunderground v.1.15,2013-01-22 02:40:00,
2013-01-21 18:45:00,53.5,14.5,30.11,SW,226,0.0,0.0,21,0.00,,,0.00,Wunderground v.1.15,2013-01-22 02:45:00,
2013-01-21 18:50:00,53.4,19.3,30.11,SW,226,0.0,0.0,26,0.00,,,0.00,Wunderground v.1.15,2013-01-22 02:50:00,
2013-01-21 18:55:00,52.6,15.8,30.12,SW,226,0.0,0.0,23,0.00,,,0.00,Wunderground v.1.15,2013-01-22 02:55:00,
2013-01-21 19:00:00,52.3,15.5,30.12,SW,226,0.0,0.0,23,0.00,,,0.00,Wunderground v.1.15,2013-01-22 03:00:00,
2013-01-21 19:05:00,52.2,16.4,30.12,SW,226,0.0,0.0,24,0.00,,,0.00,Wunderground v.1.15,2013-01-22 03:05:00,
2013-01-21 19:10:00,51.8,19.7,30.12,SW,226,0.0,0.0,28,0.00,,,0.00,Wunderground v.1.15,2013-01-22 03:10:00,
2013-01-21 19:15:00,51.0,18.1,30.12,SW,226,0.0,0.0,27,0.00,,,0.00,Wunderground v.1.15,2013-01-22 03:15:00,
2013-01-21 19:20:00,50.3,18.4,30.12,SW,226,0.0,0.0,28,0.00,,,0.00,Wunderground v.1.15,2013-01-22 03:20:00,
2013-01-21 19:25:00,49.5,18.5,30.13,SW,226,0.0,0.0,29,0.00,,,0.00,Wunderground v.1.15,2013-01-22 03:25:00,
2013-01-21 19:30:00,48.8,17.1,30.13,SW,226,0.0,0.0,28,0.00,,,0.00,Wunderground v.1.15,2013-01-22 03:30:00,
2013-01-21 19:35:00,48.2,16.6,30.13,SW,226,0.0,0.0,28,0.00,,,0.00,Wunderground v.1.15,2013-01-22 03:35:00,
2013-01-21 19:40:00,47.8,18.6,30.13,SW,226,0.0,0.0,31,0.00,,,0.00,Wunderground v.1.15,2013-01-22 03:40:00,
2013-01-21 19:45:00,47.0,18.6,30.13,SW,226,0.0,0.0,32,0.00,,,0.00,Wunderground v.1.15,2013-01-22 03:45:00,
2013-01-21 19:50:00,46.6,19.0,30.14,SW,226,0.0,0.0,33,0.00,,,0.00,Wunderground v.1.15,2013-01-22 03:50:00,
2013-01-21 19:55:00,46.1,18.6,30.14,SW,226,0.0,0.0,33,0.00,,,0.00,Wunderground v.1.15,2013-01-22 03:55:00,
2013-01-21 20:00:00,45.6,18.1,30.14,SW,226,0.0,0.0,33,0.00,,,0.00,Wunderground v.1.15,2013-01-22 04:00:00,
2013-01-21 20:05:00,45.2,17.8,30.14,SW,226,0.0,0.0,33,0.00,,,0.00,Wunderground v.1.15,2013-01-22 04:05:00,
2013-01-21 20:10:00,44.9,18.9,30.14,SW,226,0.0,0.0,35,0.00,,,0.00,Wunderground v.1.15,2013-01-22 04:10:00,
2013-01-21 20:15:00,44.6,17.9,30.14,SW,226,0.0,0.0,34,0.00,,,0.00,Wunderground v.1.15,2013-01-22 04:15:00,
2013-01-21 20:20:00,44.3,19.0,30.15,SW,226,0.0,0.0,36,0.00,,,0.00,Wunderground v.1.15,2013-01-22 04:20:00,
2013-01-21 20:25:00,43.9,18.6,30.15,SW,226,0.0,0.0,36,0.00,,,0.00,Wunderground v.1.15,2013-01-22 04:25:00,
2013-01-21 20:30:00,43.6,19.0,30.15,SW,226,0.0,0.0,37,0.00,,,0.00,Wunderground v.1.15,2013-01-22 04:30:00,
2013-01-21 20:35:00,43.2,18.0,30.15,SW,226,0.0,0.0,36,0.00,,,0.00,Wunderground v.1.15,2013-01-22 04:35:00,
2013-01-21 20:45:00,42.6,17.5,30.15,SW,226,0.0,0.0,36,0.00,,,0.00,Wunderground v.1.15,2013-01-22 04:45:00,
2013-01-21 20:50:00,42.3,18.5,30.15,SW,226,0.0,0.0,38,0.00,,,0.00,Wunderground v.1.15,2013-01-22 04:50:00,
2013-01-21 20:55:00,42.1,16.4,30.16,SW,226,0.0,0.0,35,0.00,,,0.00,Wunderground v.1.15,2013-01-22 04:55:00,
2013-01-21 21:00:00,42.0,18.8,30.16,SW,226,0.0,0.0,39,0.00,,,0.00,Wunderground v.1.15,2013-01-22 05:00:00,
2013-01-21 21:05:00,41.8,18.0,30.16,SW,226,0.0,0.0,38,0.00,,,0.00,Wunderground v.1.15,2013-01-22 05:05:00,
2013-01-21 21:10:00,41.5,17.1,30.16,SW,226,0.0,0.0,37,0.00,,,0.00,Wunderground v.1.15,2013-01-22 05:10:00,
2013-01-21 21:15:00,41.4,17.7,30.16,SW,226,0.0,0.0,38,0.00,,,0.00,Wunderground v.1.15,2013-01-22 05:15:00,
2013-01-21 21:20:00,41.2,18.1,30.16,SW,226,0.0,0.0,39,0.00,,,0.00,Wunderground v.1.15,2013-01-22 05:20:00,
2013-01-21 21:25:00,41.0,19.6,30.17,SW,226,0.0,0.0,42,0.00,,,0.00,Wunderground v.1.15,2013-01-22 05:25:00,
2013-01-21 21:30:00,40.7,18.8,30.16,SW,226,0.0,0.0,41,0.00,,,0.00,Wunderground v.1.15,2013-01-22 05:30:00,
2013-01-21 21:35:00,40.3,19.0,30.17,SW,226,0.0,0.0,42,0.00,,,0.00,Wunderground v.1.15,2013-01-22 05:35:00,
2013-01-21 21:40:00,40.0,17.6,30.17,SW,226,0.0,0.0,40,0.00,,,0.00,Wunderground v.1.15,2013-01-22 05:40:00,
2013-01-21 21:45:00,39.8,16.8,30.17,SW,226,0.0,0.0,39,0.00,,,0.00,Wunderground v.1.15,2013-01-22 05:45:00,
2013-01-21 21:50:00,39.7,19.0,30.17,SW,226,0.0,0.0,43,0.00,,,0.00,Wunderground v.1.15,2013-01-22 05:50:00,
2013-01-21 21:55:00,39.3,19.2,30.17,SW,226,0.0,0.0,44,0.00,,,0.00,Wunderground v.1.15,2013-01-22 05:55:00,
2013-01-21 22:00:00,39.1,17.4,30.16,SW,226,0.0,0.0,41,0.00,,,0.00,Wunderground v.1.15,2013-01-22 06:00:00,
2013-01-21 22:05:00,39.2,18.0,30.16,SW,226,0.0,0.0,42,0.00,,,0.00,Wunderground v.1.15,2013-01-22 06:05:00,
2013-01-21 22:10:00,38.9,19.3,30.16,SW,226,0.0,0.0,45,0.00,,,0.00,Wunderground v.1.15,2013-01-22 06:10:00,
2013-01-21 22:15:00,38.6,19.1,30.16,SW,226,0.0,0.0,45,0.00,,,0.00,Wunderground v.1.15,2013-01-22 06:15:00,
2013-01-21 22:20:00,38.3,17.7,30.16,SW,226,0.0,0.0,43,0.00,,,0.00,Wunderground v.1.15,2013-01-22 06:20:00,
2013-01-21 22:25:00,38.0,18.5,30.16,SW,226,0.0,0.0,45,0.00,,,0.00,Wunderground v.1.15,2013-01-22 06:25:00,
2013-01-21 22:30:00,37.8,18.3,30.16,SW,226,0.0,0.0,45,0.00,,,0.00,Wunderground v.1.15,2013-01-22 06:30:00,
2013-01-21 22:35:00,37.6,17.6,30.17,SW,226,0.0,0.0,44,0.00,,,0.00,Wunderground v.1.15,2013-01-22 06:35:00,
2013-01-21 22:40:00,37.5,18.1,30.17,SW,226,0.0,0.0,45,0.00,,,0.00,Wunderground v.1.15,2013-01-22 06:40:00,
2013-01-21 22:45:00,37.3,18.4,30.17,SW,226,0.0,0.0,46,0.00,,,0.00,Wunderground v.1.15,2013-01-22 06:45:00,
2013-01-21 22:50:00,37.0,18.6,30.17,SW,226,0.0,0.0,47,0.00,,,0.00,Wunderground v.1.15,2013-01-22 06:50:00,
2013-01-21 22:55:00,36.8,18.4,30.16,SW,226,0.0,0.0,47,0.00,,,0.00,Wunderground v.1.15,2013-01-22 06:55:00,
2013-01-21 23:00:00,36.4,18.6,30.16,SW,226,0.0,0.0,48,0.00,,,0.00,Wunderground v.1.15,2013-01-22 07:00:00,
2013-01-21 23:10:00,35.9,17.6,30.16,SW,226,0.0,0.0,47,0.00,,,0.00,Wunderground v.1.15,2013-01-22 07:10:00,
2013-01-21 23:15:00,35.8,18.0,30.16,SW,226,0.0,0.0,48,0.00,,,0.00,Wunderground v.1.15,2013-01-22 07:15:00,
2013-01-21 23:20:00,35.7,18.9,30.16,SW,226,0.0,0.0,50,0.00,,,0.00,Wunderground v.1.15,2013-01-22 07:20:00,
2013-01-21 23:25:00,35.6,18.8,30.16,SW,226,0.0,0.0,50,0.00,,,0.00,Wunderground v.1.15,2013-01-22 07:25:00,
2013-01-21 23:30:00,35.4,18.6,30.16,SW,226,0.0,0.0,50,0.00,,,0.00,Wunderground v.1.15,2013-01-22 07:30:00,
2013-01-21 23:35:00,35.1,18.8,30.16,SW,226,0.0,0.0,51,0.00,,,0.00,Wunderground v.1.15,2013-01-22 07:35:00,
2013-01-21 23:40:00,35.0,18.7,30.16,SW,226,0.0,0.0,51,0.00,,,0.00,Wunderground v.1.15,2013-01-22 07:40:00,
2013-01-21 23:45:00,34.8,18.9,30.16,SW,226,0.0,0.0,52,0.00,,,0.00,Wunderground v.1.15,2013-01-22 07:45:00,
2013-01-21 23:55:00,34.6,18.8,30.16,SW,226,0.0,0.0,52,0.00,,,0.00,Wunderground v.1.15,2013-01-22 07:55:00,